Weather in Aristovo

Russia / Ryazan Oblast     54°08′42″N   40°12′52″E
temp.,
°C
wind,
m/s
gust,
m/s
humid.,
%
clouds,
%
prec.,
mm/h
press.,
hPa
HPBL,
m
22 october, fri
fri2200:00+12sw81769100 0.0 1000657
03:00+11sw81773100 0.0 999654
06:00+10sw81674100 0.0 998659
09:00+11sw81573100 0.0 999728
12:00+13wsw91466100 0.0 10001151
15:00+14wsw916592 0.0 10011593
18:00+11wsw814625 0.0 1004767
21:00+10wsw714665 0.1 1006734
23 october, sat
sat2300:00+8sw613690 0.0 1006550
03:00+7sw6137310 0.0 1007478
06:00+6sw613745 0.0 1007485
09:00+7sw613662 0.0 1008691
12:00+10sw8124717 0.0 10081375
15:00+11sw7125096 0.0 10071712
18:00+8wsw7116193 0.0 10081128
21:00+4wsw612865 0.1 1010525
24 october, sun
sun2400:00+4wsw612825 0.0 1010562
03:00+3wsw612857 0.0 1011506
06:00+4wsw6138261 0.0 1011593
09:00+4wsw71290100 0.4 10111112
12:00+5w797587 0.2 1012973
15:00+5w6875100 0.3 1013940
18:00+3wnw4893100 0.3 1014652
21:00+2nw698499 0.7 1016795
25 october, mon
mon2500:00+1nw6118695 0.1 1018747
03:000nnw7129184 0.1 1020833
06:00+1nnw61075100 0.1 10241191
09:000n697763 0.1 1027725
12:00+2n675848 0.0 10291070
15:00+3n575111 0.0 10301074
18:00+1nnw346729 0.0 103284
21:00−1nw22745 0.0 103324
26 october, tue
tue2600:00−1w33755 0.0 103451
03:00−2sw36755 0.0 1034125
06:00−2sw410775 0.0 1033216
09:00+1sw5126544 0.0 1033414
12:00+5wsw71045100 0.0 1031720
15:00+5sw6114649 0.0 1029756
18:00+2sw6135697 0.0 1028428
21:00+1sw61459100 0.0 1027413